Tracking 30743 objects as of 20-Jun-2025
HD Live streaming from Space Station
objects crossing your sky now

COSMOS 1859

Track COSMOS 1859 now!
10-day predictions
COSMOS 1859 is classified as:


NORAD ID: 18120
Int'l Code: 1987-051H
Perigee: 1,393.7 km
Apogee: 1,483.4 km
Inclination: 74.0 °
Period: 114.5 minutes
Semi major axis: 7809 km
RCS: 0.6713 m2 (medium)
Launch date: June 16, 1987
Source: Commonwealth of Independent States (former USSR) (CIS)
Launch site: PLESETSK MISSILE AND SPACE COMPLEX (PKMTR)
Your satellite tracking list
Your tracking list is empty




NASA's NSSDC Master Catalog

Two Line Element Set (TLE):
1 18120U 87051H   25170.39747865  .00000011  00000-0  16137-3 0  9990
2 18120  74.0016 150.3829 0057452 203.2598 324.8348 12.57948794745387
Source of the keplerian elements: AFSPC